Change the Weather History Date:

Wednesday, October 19, 2011

  Actual Average Record
Temperature  
Mean Temperature 41 °F -  
Max Temperature 48 °F 61 °F 80 °F (2000)
Min Temperature 37 °F 28 °F 18 °F (1967)
Degree Days  
Heating Degree Days 24    
Moisture  
Dew Point 34 °F    
Average Humidity 81    
Maximum Humidity 100    
Minimum Humidity 58    
Precipitation  
Precipitation 0.02 in - - ()
Sea Level Pressure  
Sea Level Pressure 30.07 in    
Wind  
Wind Speed 4 mph (NNE)    
Max Wind Speed 13 mph    
Max Gust Speed 22 mph    
Visibility 10 miles    
Events Rain    
Averages and records for this station are not official NWS values.
T = Trace of Precipitation, MM = Missing Value Source: NWS Daily Summary

Daily Weather History Graph

Daily Weather History Graph

Search for Another Location

Airport or City:

Trip Planner

Search our weather history database for the weather conditions in past years. The results will help you decide how hot, cold, wet, or windy it might be!

Date:

Astronomy

Oct. 19, 2011 Rise Set
Actual Time 7:27 AM CDT 6:13 PM CDT
Civil Twilight 6:57 AM CDT 6:43 PM CDT
Nautical Twilight 6:22 AM CDT 7:18 PM CDT
Astronomical Twilight 5:48 AM CDT 7:52 PM CDT
Moon 11:51 PM CDT (10/19) 2:07 PM CDT (10/19)
Length of Visible Light 11h 45m
Length of Day
10h 45m
Waning Gibbous, 54% of the Moon is Illuminated
Oct 19
Waning Gibbous
Oct 19
Last Quarter
Oct 26
New
Nov 2
First Quarter
Nov 10
Full

Hourly Weather History & Observations

Time (CDT) Temp. Windchill Dew Point Humidity Pressure Visibility Wind Dir Wind Speed Gust Speed Precip Events Conditions
12:10 AM 39.2 °F 37.0 °F 33.8 °F 81% 30.02 in 10.0 mi North 3.5 mph - N/A   Overcast
12:20 AM 39.2 °F 37.0 °F 33.8 °F 81% 30.02 in 10.0 mi Variable 3.5 mph - N/A   Overcast
12:27 AM 39.2 °F - 33.8 °F 81% 30.02 in 10.0 mi Calm Calm - N/A   Overcast
12:37 AM 37.4 °F 34.9 °F 33.8 °F 87% 30.02 in 10.0 mi Variable 3.5 mph - N/A   Overcast
12:53 AM 37.9 °F 35.5 °F 34.0 °F 86% 30.06 in 10.0 mi Variable 3.5 mph - N/A   Overcast
1:53 AM 39.0 °F 36.8 °F 34.0 °F 82% 30.06 in 10.0 mi Variable 3.5 mph - N/A   Overcast
2:28 AM 39.2 °F 37.0 °F 33.8 °F 81% 30.03 in 10.0 mi Variable 3.5 mph - N/A   Overcast
2:38 AM 39.2 °F - 33.8 °F 81% 30.03 in 10.0 mi Calm Calm - N/A   Overcast
2:53 AM 39.0 °F - 34.0 °F 82% 30.07 in 10.0 mi Calm Calm - N/A   Overcast
3:53 AM 39.0 °F 36.8 °F 34.0 °F 82% 30.07 in 10.0 mi Variable 3.5 mph - N/A   Overcast
4:53 AM 37.9 °F 34.4 °F 35.1 °F 89% 30.07 in 10.0 mi Variable 4.6 mph - N/A   Overcast
5:53 AM 37.9 °F - 34.0 °F 86% 30.09 in 10.0 mi Calm Calm - N/A   Overcast
6:53 AM 37.9 °F 34.4 °F 35.1 °F 89% 30.10 in 10.0 mi Variable 4.6 mph - N/A   Overcast
7:53 AM 37.0 °F 34.5 °F 35.1 °F 93% 30.11 in 10.0 mi Variable 3.5 mph - N/A   Overcast
8:01 AM 37.4 °F 33.8 °F 33.8 °F 87% 30.08 in 10.0 mi Variable 4.6 mph - N/A   Mostly Cloudy
8:12 AM 37.4 °F 33.8 °F 33.8 °F 87% 30.08 in 10.0 mi NNE 4.6 mph - N/A   Scattered Clouds
8:39 AM 37.4 °F 34.9 °F 35.6 °F 93% 30.09 in 10.0 mi Variable 3.5 mph - N/A   Mostly Cloudy
8:53 AM 39.0 °F 35.7 °F 34.0 °F 82% 30.13 in 10.0 mi NNE 4.6 mph - N/A   Overcast
9:50 AM 39.2 °F 37.0 °F 33.8 °F 81% 30.09 in 10.0 mi Variable 3.5 mph - N/A   Overcast
9:53 AM 39.9 °F 37.8 °F 34.0 °F 79% 30.13 in 10.0 mi Variable 3.5 mph - N/A   Overcast
11:53 AM 45.0 °F 42.6 °F 33.1 °F 63% 30.13 in 10.0 mi Variable 4.6 mph - N/A   Mostly Cloudy
12:06 PM 44.6 °F 39.7 °F 33.8 °F 66% 30.10 in 10.0 mi NNE 9.2 mph - N/A   Scattered Clouds
12:53 PM 44.1 °F 40.8 °F 33.1 °F 65% 30.12 in 10.0 mi Variable 5.8 mph 21.9 mph N/A   Mostly Cloudy
1:53 PM 45.0 °F 41.2 °F 30.9 °F 58% 30.10 in 10.0 mi Variable 6.9 mph 19.6 mph 0.00 in   Mostly Cloudy
2:53 PM 45.0 °F 38.9 °F 32.0 °F 60% 30.09 in 10.0 mi NE 12.7 mph 18.4 mph N/A   Mostly Cloudy
3:53 PM 44.1 °F 40.1 °F 32.0 °F 63% 30.09 in 10.0 mi Variable 6.9 mph - 0.00 in   Mostly Cloudy
4:49 PM 44.6 °F 40.7 °F 33.8 °F 66% 30.05 in 10.0 mi Variable 6.9 mph - 0.00 in   Mostly Cloudy
4:53 PM 45.0 °F 41.8 °F 33.1 °F 63% 30.09 in 10.0 mi Variable 5.8 mph - 0.00 in   Mostly Cloudy
5:46 PM 41.0 °F 37.1 °F 33.8 °F 76% 30.06 in 10.0 mi Variable 5.8 mph - 0.00 in   Scattered Clouds
5:53 PM 41.0 °F 38.0 °F 34.0 °F 76% 30.10 in 10.0 mi Variable 4.6 mph - 0.00 in   Mostly Cloudy
6:53 PM 39.9 °F 37.8 °F 34.0 °F 79% 30.10 in 10.0 mi North 3.5 mph - 0.00 in   Scattered Clouds
7:53 PM 39.0 °F 36.8 °F 33.1 °F 79% 30.09 in 10.0 mi NNE 3.5 mph - N/A   Scattered Clouds
8:53 PM 39.9 °F 37.8 °F 35.1 °F 83% 30.09 in 10.0 mi Variable 3.5 mph - 0.00 in   Overcast
9:53 PM 39.0 °F - 36.0 °F 89% 30.08 in 10.0 mi Calm Calm - 0.00 in Rain Light Rain
10:33 PM 39.2 °F - 37.4 °F 93% 30.03 in 7.0 mi Calm Calm - 0.02 in Rain Light Rain
10:40 PM 39.2 °F 35.9 °F 37.4 °F 93% 30.02 in 8.0 mi Variable 4.6 mph - 0.02 in Rain Light Rain
10:53 PM 37.9 °F 35.5 °F 37.0 °F 97% 30.05 in 10.0 mi Variable 3.5 mph - 0.02 in   Mostly Cloudy
11:01 PM 37.4 °F 33.8 °F 37.4 °F 100% 30.01 in 10.0 mi Variable 4.6 mph - N/A   Overcast
11:17 PM 39.2 °F 37.0 °F 37.4 °F 93% 30.00 in 10.0 mi Variable 3.5 mph - N/A   Overcast
11:24 PM 39.2 °F - 37.4 °F 93% 30.00 in 8.0 mi Calm Calm - 0.00 in Rain Light Rain
11:53 PM 39.9 °F 35.8 °F 37.9 °F 93% 30.02 in 9.0 mi Variable 5.8 mph - 0.00 in Rain Light Rain